EXS28C EGPF-LPMA

Flight info

Callsign EXS28C
Flight time N/A
Altitude 34000
Route NORBO1J NORBO L186 TRN P600 BLACA DCT NIMAT DCT DUB/M077F340 DCT OMOKO T16 NAVIX/N0433F340 DCT KICAS KICAS1P
Aircraft B738/M-SDE2E3FGHIRWXY/LB1

Departure

Time N/A
Airport Glasgow Airport (EGPF)

Arrival

Time 2026-05-06 14:44
Airport Cristiano Ronaldo International Airport (LPMA)
Time Latitude Longitude Altitude Speed Heading
2026-05-06 12:39 46.81712 -13.09116 34119 ft 432 kts 201°
2026-05-06 12:40 46.76006 -13.12067 34118 ft 432 kts 201°
2026-05-06 12:40 46.70366 -13.14979 34117 ft 433 kts 201°
2026-05-06 12:41 46.64645 -13.17925 34111 ft 433 kts 201°
2026-05-06 12:41 46.58989 -13.20831 34108 ft 434 kts 201°
2026-05-06 12:42 46.53292 -13.23752 34109 ft 434 kts 201°
2026-05-06 12:42 46.47548 -13.26691 34114 ft 435 kts 201°
2026-05-06 12:43 46.41882 -13.29583 34114 ft 435 kts 201°
2026-05-06 12:43 46.36125 -13.32515 34113 ft 436 kts 201°
2026-05-06 12:44 46.30400 -13.35424 34111 ft 436 kts 201°
2026-05-06 12:44 46.24678 -13.38325 34111 ft 436 kts 201°
2026-05-06 12:45 46.19914 -13.40736 34124 ft 437 kts 201°
2026-05-06 12:46 46.11301 -13.45083 34122 ft 437 kts 201°
2026-05-06 12:46 46.05516 -13.47995 34116 ft 438 kts 201°
2026-05-06 12:47 45.99769 -13.50881 34117 ft 438 kts 201°
2026-05-06 12:47 45.93997 -13.53773 34121 ft 439 kts 201°
2026-05-06 12:48 45.88234 -13.56654 34121 ft 439 kts 201°
2026-05-06 12:48 45.82453 -13.59539 34120 ft 440 kts 201°
2026-05-06 12:49 45.76673 -13.62415 34118 ft 440 kts 201°
2026-05-06 12:49 45.70874 -13.65296 34126 ft 441 kts 201°
2026-05-06 12:50 45.65071 -13.68172 34126 ft 442 kts 201°
2026-05-06 12:50 45.59290 -13.71031 34125 ft 443 kts 201°
2026-05-06 12:51 45.53462 -13.73906 34125 ft 444 kts 201°
2026-05-06 12:51 45.47619 -13.76783 34125 ft 444 kts 201°
2026-05-06 12:52 45.41774 -13.79655 34126 ft 445 kts 201°
2026-05-06 12:52 45.35914 -13.82527 34127 ft 446 kts 201°
2026-05-06 12:53 45.30036 -13.85402 34125 ft 447 kts 201°
2026-05-06 12:53 45.24155 -13.88273 34125 ft 447 kts 201°
2026-05-06 12:54 45.18259 -13.91144 34127 ft 448 kts 201°
2026-05-06 12:54 45.12360 -13.94011 34128 ft 449 kts 201°
2026-05-06 12:55 45.06446 -13.96880 34126 ft 450 kts 201°
2026-05-06 12:55 45.00520 -13.99747 34130 ft 450 kts 201°
2026-05-06 12:56 44.94699 -14.02792 34129 ft 450 kts 204°
2026-05-06 12:56 44.88883 -14.06086 34127 ft 450 kts 205°
2026-05-06 12:57 44.83062 -14.09374 34134 ft 451 kts 204°
2026-05-06 12:57 44.77213 -14.12629 34133 ft 452 kts 204°
2026-05-06 12:58 44.71362 -14.15860 34132 ft 453 kts 204°
2026-05-06 12:58 44.65486 -14.19091 34132 ft 454 kts 204°
2026-05-06 12:59 44.59606 -14.22319 34127 ft 455 kts 205°
2026-05-06 12:59 44.53747 -14.25529 34128 ft 456 kts 205°
2026-05-06 13:00 44.47833 -14.28763 34133 ft 457 kts 205°
2026-05-06 13:00 44.41904 -14.31997 34134 ft 458 kts 205°
2026-05-06 13:01 44.35958 -14.35234 34131 ft 459 kts 205°
2026-05-06 13:01 44.29994 -14.38474 34140 ft 460 kts 205°
2026-05-06 13:02 44.24026 -14.41708 34137 ft 461 kts 205°
2026-05-06 13:02 44.18031 -14.44951 34134 ft 462 kts 205°
2026-05-06 13:03 44.12031 -14.48189 34135 ft 463 kts 205°
2026-05-06 13:03 44.06019 -14.51426 34134 ft 464 kts 205°
2026-05-06 13:04 43.99992 -14.54664 34130 ft 465 kts 205°
2026-05-06 13:04 43.93951 -14.57903 34137 ft 466 kts 205°
2026-05-06 13:05 43.87899 -14.61140 34142 ft 467 kts 205°
2026-05-06 13:05 43.81837 -14.64376 34134 ft 468 kts 205°
2026-05-06 13:06 43.75761 -14.67612 34136 ft 469 kts 205°
2026-05-06 13:06 43.69661 -14.70854 34141 ft 469 kts 205°
2026-05-06 13:07 43.63564 -14.74087 34138 ft 470 kts 206°
2026-05-06 13:07 43.57445 -14.77325 34139 ft 471 kts 206°
2026-05-06 13:08 43.51306 -14.80566 34139 ft 473 kts 206°
2026-05-06 13:08 43.45160 -14.83804 34141 ft 474 kts 206°
2026-05-06 13:09 43.39039 -14.87022 34140 ft 475 kts 206°
2026-05-06 13:09 43.32864 -14.90261 34141 ft 475 kts 206°
2026-05-06 13:10 43.26672 -14.93501 34152 ft 476 kts 206°
2026-05-06 13:10 43.20473 -14.96739 34136 ft 477 kts 206°
2026-05-06 13:11 43.14260 -14.99976 34139 ft 478 kts 206°
2026-05-06 13:11 43.08042 -15.03210 34140 ft 479 kts 206°
2026-05-06 13:12 43.01816 -15.06440 34143 ft 479 kts 206°
2026-05-06 13:12 42.95574 -15.09672 34143 ft 479 kts 206°
2026-05-06 13:13 42.89340 -15.12892 34135 ft 480 kts 206°
2026-05-06 13:13 42.83046 -15.16136 34140 ft 480 kts 206°
2026-05-06 13:14 42.76794 -15.19352 34141 ft 480 kts 207°
2026-05-06 13:14 42.70503 -15.22581 34147 ft 480 kts 207°
2026-05-06 13:15 42.64250 -15.25783 34145 ft 481 kts 207°
2026-05-06 13:15 42.57982 -15.28987 34145 ft 481 kts 207°
2026-05-06 13:16 42.51722 -15.32179 34144 ft 481 kts 207°
2026-05-06 13:16 42.45409 -15.35391 34147 ft 481 kts 207°
2026-05-06 13:17 42.39140 -15.38574 34145 ft 481 kts 207°
2026-05-06 13:17 42.32867 -15.41753 34149 ft 481 kts 207°
2026-05-06 13:18 42.26597 -15.44923 34147 ft 481 kts 207°
2026-05-06 13:18 42.20275 -15.48113 34149 ft 481 kts 207°
2026-05-06 13:19 42.14005 -15.51270 34161 ft 481 kts 207°
2026-05-06 13:19 42.07723 -15.54427 34152 ft 482 kts 207°
2026-05-06 13:20 42.01435 -15.57536 34149 ft 484 kts 203°
2026-05-06 13:20 41.95847 -15.58972 34162 ft 493 kts 189°
2026-05-06 13:21 41.88953 -15.59669 34144 ft 494 kts 188°
2026-05-06 13:21 41.82112 -15.60309 34150 ft 493 kts 188°
2026-05-06 13:22 41.75273 -15.61010 34148 ft 492 kts 189°
2026-05-06 13:22 41.68443 -15.61751 34148 ft 492 kts 189°
2026-05-06 13:23 41.61581 -15.62505 34149 ft 492 kts 189°
2026-05-06 13:23 41.54759 -15.63252 34150 ft 491 kts 189°
2026-05-06 13:24 41.47949 -15.63992 34151 ft 491 kts 189°
2026-05-06 13:24 41.41141 -15.64731 34152 ft 491 kts 189°
2026-05-06 13:25 41.34302 -15.65470 34153 ft 490 kts 189°
2026-05-06 13:25 41.27487 -15.66206 34153 ft 490 kts 189°
2026-05-06 13:26 41.20706 -15.66937 34150 ft 490 kts 189°
2026-05-06 13:26 41.13906 -15.67668 34149 ft 490 kts 189°
2026-05-06 13:27 41.07070 -15.68401 34147 ft 489 kts 189°
2026-05-06 13:27 41.00283 -15.69128 34149 ft 489 kts 189°
2026-05-06 13:28 40.93547 -15.69848 34151 ft 489 kts 188°
2026-05-06 13:28 40.86719 -15.70576 34151 ft 489 kts 188°
2026-05-06 13:29 40.79935 -15.71298 34150 ft 489 kts 188°
2026-05-06 13:29 40.73135 -15.72020 34148 ft 489 kts 188°
2026-05-06 13:30 40.66318 -15.72742 34151 ft 489 kts 188°
2026-05-06 13:30 40.59577 -15.73455 34153 ft 489 kts 188°
2026-05-06 13:31 40.52790 -15.74172 34152 ft 489 kts 188°
2026-05-06 13:31 40.46004 -15.74887 34154 ft 489 kts 188°
2026-05-06 13:32 40.39228 -15.75599 34151 ft 489 kts 188°
2026-05-06 13:32 40.32445 -15.76310 34148 ft 489 kts 188°
2026-05-06 13:33 40.25664 -15.77020 34150 ft 489 kts 188°
2026-05-06 13:33 40.18847 -15.77732 34155 ft 489 kts 188°
2026-05-06 13:34 40.12066 -15.78440 34155 ft 489 kts 188°
2026-05-06 13:34 40.05293 -15.79144 34149 ft 488 kts 188°
2026-05-06 13:35 39.98503 -15.79850 34155 ft 488 kts 188°
2026-05-06 13:35 39.91734 -15.80551 34154 ft 488 kts 188°
2026-05-06 13:36 39.84931 -15.81255 34156 ft 488 kts 188°
2026-05-06 13:36 39.78165 -15.81953 34152 ft 488 kts 188°
2026-05-06 13:37 39.71395 -15.82651 34152 ft 487 kts 188°
2026-05-06 13:37 39.64638 -15.83346 34151 ft 487 kts 188°
2026-05-06 13:38 39.57882 -15.84039 34153 ft 487 kts 188°
2026-05-06 13:38 39.51127 -15.84731 34153 ft 487 kts 188°
2026-05-06 13:39 39.44366 -15.85422 34151 ft 487 kts 188°
2026-05-06 13:39 39.37615 -15.86111 34151 ft 487 kts 188°
2026-05-06 13:40 39.30859 -15.86799 34151 ft 487 kts 188°
2026-05-06 13:40 39.24106 -15.87486 34152 ft 487 kts 188°
2026-05-06 13:41 39.17347 -15.88171 34155 ft 487 kts 188°
2026-05-06 13:41 39.10594 -15.88855 34153 ft 487 kts 188°
2026-05-06 13:42 39.03833 -15.89538 34155 ft 487 kts 188°
2026-05-06 13:42 38.97087 -15.90219 34154 ft 487 kts 188°
2026-05-06 13:43 38.90326 -15.90899 34146 ft 487 kts 188°
2026-05-06 13:43 38.83570 -15.91578 34161 ft 487 kts 188°
2026-05-06 13:44 38.76770 -15.92260 34150 ft 487 kts 188°
2026-05-06 13:44 38.70013 -15.92936 34143 ft 487 kts 188°
2026-05-06 13:45 38.63263 -15.93610 34154 ft 487 kts 187°
2026-05-06 13:45 38.53132 -15.94620 34148 ft 486 kts 187°
2026-05-06 13:46 38.46391 -15.95290 34155 ft 486 kts 187°
2026-05-06 13:46 38.39648 -15.95960 34153 ft 486 kts 187°
2026-05-06 13:47 38.32918 -15.96627 34155 ft 486 kts 187°
2026-05-06 13:47 38.26177 -15.97293 34155 ft 485 kts 187°
2026-05-06 13:48 38.19438 -15.97958 34149 ft 485 kts 187°
2026-05-06 13:48 38.12711 -15.98621 34154 ft 485 kts 187°
2026-05-06 13:49 38.05977 -15.99283 34154 ft 485 kts 187°
2026-05-06 13:49 37.99253 -15.99943 34155 ft 485 kts 187°
2026-05-06 13:50 37.93612 -16.00496 34157 ft 485 kts 187°
2026-05-06 13:50 37.86887 -16.01154 34152 ft 485 kts 187°
2026-05-06 13:51 37.80173 -16.01809 34149 ft 485 kts 187°
2026-05-06 13:51 37.73483 -16.02461 34151 ft 485 kts 187°
2026-05-06 13:52 37.66715 -16.03119 34151 ft 485 kts 187°
2026-05-06 13:52 37.59998 -16.03771 34150 ft 484 kts 187°
2026-05-06 13:53 37.53274 -16.04423 34149 ft 484 kts 187°
2026-05-06 13:53 37.46557 -16.05073 34151 ft 484 kts 187°
2026-05-06 13:54 37.39834 -16.05723 34151 ft 484 kts 187°
2026-05-06 13:54 37.33115 -16.06370 34149 ft 484 kts 187°
2026-05-06 13:55 37.26356 -16.07021 34150 ft 484 kts 187°
2026-05-06 13:55 37.19638 -16.07666 34145 ft 484 kts 187°
2026-05-06 13:56 37.12932 -16.08309 34149 ft 484 kts 187°
2026-05-06 13:56 37.06211 -16.08952 34153 ft 483 kts 187°
2026-05-06 13:57 36.99455 -16.09598 34151 ft 483 kts 187°
2026-05-06 13:57 36.92751 -16.10237 34147 ft 483 kts 187°
2026-05-06 13:58 36.86043 -16.10876 34157 ft 483 kts 187°
2026-05-06 13:58 36.79348 -16.11512 34141 ft 483 kts 187°
2026-05-06 13:59 36.72647 -16.12148 34148 ft 483 kts 187°
2026-05-06 13:59 36.65938 -16.12783 34151 ft 483 kts 187°
2026-05-06 14:00 36.59249 -16.13416 34145 ft 482 kts 187°
2026-05-06 14:00 36.52560 -16.14047 34144 ft 482 kts 187°
2026-05-06 14:01 36.45877 -16.14677 34147 ft 482 kts 187°
2026-05-06 14:01 36.39159 -16.15308 34148 ft 481 kts 187°
2026-05-06 14:02 36.32469 -16.15937 34149 ft 481 kts 187°
2026-05-06 14:02 36.25840 -16.16558 34147 ft 481 kts 187°
2026-05-06 14:03 36.19156 -16.17184 34152 ft 481 kts 187°
2026-05-06 14:03 36.12474 -16.17808 34148 ft 482 kts 187°
2026-05-06 14:04 36.05797 -16.18430 34146 ft 481 kts 187°
2026-05-06 14:04 35.99067 -16.19057 34148 ft 482 kts 187°
2026-05-06 14:05 35.92395 -16.19677 34147 ft 482 kts 187°
2026-05-06 14:05 35.85696 -16.20299 34144 ft 482 kts 187°
2026-05-06 14:06 35.79014 -16.20917 34140 ft 482 kts 187°
2026-05-06 14:06 35.72285 -16.21540 34148 ft 481 kts 187°
2026-05-06 14:07 35.65645 -16.22153 34145 ft 481 kts 187°
2026-05-06 14:07 35.58927 -16.22772 34143 ft 481 kts 187°
2026-05-06 14:08 35.52291 -16.23382 34141 ft 481 kts 187°
2026-05-06 14:08 35.45596 -16.24187 34144 ft 480 kts 189°
2026-05-06 14:09 35.38961 -16.25155 34142 ft 480 kts 189°
2026-05-06 14:09 35.32363 -16.26104 34121 ft 469 kts 189°
2026-05-06 14:10 35.29170 -16.26548 34120 ft 458 kts 189°
2026-05-06 14:10 35.26010 -16.26983 34144 ft 456 kts 189°
2026-05-06 14:10 35.19705 -16.27850 33830 ft 457 kts 189°
2026-05-06 14:11 35.16556 -16.28280 33520 ft 452 kts 189°
2026-05-06 14:11 35.13443 -16.28705 33127 ft 449 kts 189°
2026-05-06 14:11 35.10315 -16.29131 32771 ft 445 kts 190°
2026-05-06 14:11 35.07290 -16.29543 32392 ft 442 kts 190°
2026-05-06 14:12 35.04199 -16.29964 32020 ft 439 kts 190°
2026-05-06 14:12 35.01168 -16.30377 31661 ft 437 kts 190°
2026-05-06 14:12 34.98155 -16.30788 31293 ft 435 kts 190°
2026-05-06 14:12 34.95160 -16.31196 30933 ft 432 kts 190°
2026-05-06 14:13 34.92176 -16.31602 30579 ft 431 kts 191°
2026-05-06 14:13 34.89206 -16.32006 30222 ft 429 kts 191°
2026-05-06 14:13 34.86242 -16.32408 29812 ft 427 kts 191°
2026-05-06 14:13 34.83302 -16.32807 29415 ft 424 kts 191°
2026-05-06 14:14 34.80385 -16.33203 29030 ft 421 kts 191°
2026-05-06 14:14 34.77479 -16.33596 28669 ft 418 kts 191°
2026-05-06 14:14 34.74598 -16.33986 28296 ft 415 kts 191°
2026-05-06 14:14 34.71739 -16.34373 27934 ft 412 kts 191°
2026-05-06 14:15 34.68936 -16.34752 27575 ft 409 kts 191°
2026-05-06 14:15 34.66118 -16.35133 27219 ft 406 kts 191°
2026-05-06 14:15 34.63282 -16.35516 26872 ft 404 kts 190°
2026-05-06 14:15 34.60502 -16.35891 26514 ft 401 kts 190°
2026-05-06 14:16 34.57769 -16.36260 26167 ft 399 kts 190°
2026-05-06 14:16 34.55020 -16.36630 25826 ft 396 kts 190°
2026-05-06 14:16 34.52256 -16.37003 25473 ft 394 kts 190°
2026-05-06 14:16 34.49544 -16.37368 25126 ft 392 kts 190°
2026-05-06 14:17 34.46870 -16.37728 24787 ft 390 kts 190°
2026-05-06 14:17 34.44140 -16.38095 24439 ft 388 kts 190°
2026-05-06 14:17 34.41463 -16.38455 24099 ft 386 kts 190°
2026-05-06 14:17 34.38798 -16.38813 23758 ft 385 kts 190°
2026-05-06 14:18 34.36179 -16.39164 23363 ft 383 kts 190°
2026-05-06 14:18 34.33505 -16.39523 22975 ft 381 kts 190°
2026-05-06 14:18 34.30917 -16.39870 22621 ft 378 kts 190°
2026-05-06 14:18 34.28282 -16.40222 22270 ft 375 kts 190°
2026-05-06 14:19 34.25731 -16.40563 21942 ft 372 kts 190°
2026-05-06 14:19 34.23170 -16.40906 21605 ft 369 kts 190°
2026-05-06 14:19 34.20594 -16.41250 21267 ft 367 kts 189°
2026-05-06 14:19 34.18065 -16.41588 20938 ft 364 kts 189°
2026-05-06 14:20 34.15552 -16.41924 20606 ft 362 kts 189°
2026-05-06 14:20 34.13054 -16.42257 20281 ft 360 kts 189°
2026-05-06 14:20 34.11419 -16.42475 20063 ft 358 kts 189°
2026-05-06 14:20 34.08941 -16.42806 19742 ft 356 kts 189°
2026-05-06 14:21 34.06486 -16.43133 19412 ft 354 kts 189°
2026-05-06 14:21 34.04045 -16.43458 19097 ft 353 kts 189°
2026-05-06 14:21 34.01575 -16.43787 18769 ft 351 kts 189°
2026-05-06 14:21 33.99187 -16.44105 18455 ft 350 kts 189°
2026-05-06 14:22 33.96769 -16.44426 18088 ft 348 kts 189°
2026-05-06 14:22 33.94368 -16.44745 17731 ft 346 kts 189°
2026-05-06 14:22 33.91954 -16.45066 17392 ft 344 kts 189°
2026-05-06 14:22 33.89589 -16.45380 17073 ft 341 kts 189°
2026-05-06 14:23 33.87229 -16.45693 16758 ft 339 kts 189°
2026-05-06 14:23 33.84900 -16.46001 16446 ft 336 kts 188°
2026-05-06 14:23 33.82574 -16.46310 16132 ft 334 kts 188°
2026-05-06 14:23 33.80272 -16.46615 15823 ft 332 kts 188°
2026-05-06 14:24 33.77987 -16.46917 15520 ft 330 kts 188°
2026-05-06 14:24 33.75712 -16.47218 15211 ft 328 kts 188°
2026-05-06 14:24 33.73453 -16.47517 14943 ft 325 kts 188°
2026-05-06 14:24 33.71225 -16.47813 14703 ft 321 kts 188°
2026-05-06 14:25 33.69022 -16.48106 14460 ft 317 kts 188°
2026-05-06 14:25 33.66831 -16.48397 14226 ft 315 kts 188°
2026-05-06 14:25 33.64662 -16.48686 13993 ft 313 kts 188°
2026-05-06 14:25 33.62502 -16.48973 13742 ft 311 kts 188°
2026-05-06 14:26 33.60358 -16.49258 13491 ft 308 kts 188°
2026-05-06 14:26 33.58242 -16.49539 13258 ft 304 kts 188°
2026-05-06 14:26 33.56141 -16.49818 12957 ft 303 kts 188°
2026-05-06 14:26 33.54052 -16.50095 12660 ft 302 kts 188°
2026-05-06 14:27 33.51973 -16.50371 12366 ft 300 kts 188°
2026-05-06 14:27 33.49895 -16.50647 12063 ft 299 kts 188°
2026-05-06 14:27 33.47829 -16.50920 11766 ft 298 kts 188°
2026-05-06 14:27 33.45773 -16.51193 11476 ft 297 kts 188°
2026-05-06 14:28 33.43718 -16.51465 11181 ft 297 kts 188°
2026-05-06 14:28 33.41665 -16.51737 10886 ft 296 kts 188°
2026-05-06 14:28 33.39592 -16.52011 10586 ft 296 kts 188°
2026-05-06 14:28 33.37580 -16.52277 10313 ft 295 kts 188°
2026-05-06 14:29 33.35535 -16.52546 10155 ft 288 kts 188°
2026-05-06 14:29 33.33567 -16.52806 9849 ft 288 kts 188°
2026-05-06 14:29 33.31573 -16.53069 9548 ft 288 kts 187°
2026-05-06 14:29 33.29591 -16.53331 9254 ft 286 kts 188°
2026-05-06 14:30 33.27615 -16.53591 8963 ft 285 kts 188°
2026-05-06 14:30 33.25621 -16.53854 8669 ft 284 kts 188°
2026-05-06 14:30 33.23686 -16.54109 8397 ft 283 kts 188°
2026-05-06 14:30 33.21711 -16.54369 8116 ft 281 kts 188°
2026-05-06 14:31 33.19773 -16.54623 7835 ft 280 kts 188°
2026-05-06 14:31 33.17840 -16.54878 7560 ft 279 kts 188°
2026-05-06 14:31 33.15939 -16.55128 7287 ft 278 kts 188°
2026-05-06 14:31 33.13998 -16.55383 7016 ft 277 kts 188°
2026-05-06 14:32 33.12112 -16.55631 6741 ft 276 kts 189°
2026-05-06 14:32 33.10185 -16.55884 6464 ft 275 kts 189°
2026-05-06 14:32 33.08313 -16.56130 6167 ft 274 kts 188°
2026-05-06 14:32 33.06399 -16.56382 5873 ft 273 kts 188°
2026-05-06 14:33 33.04540 -16.56626 5599 ft 272 kts 188°
2026-05-06 14:33 33.02660 -16.56872 5307 ft 272 kts 188°
2026-05-06 14:33 33.00767 -16.57121 4953 ft 274 kts 187°
2026-05-06 14:33 32.98871 -16.57369 4660 ft 274 kts 187°
2026-05-06 14:34 32.96960 -16.57619 4373 ft 273 kts 187°
2026-05-06 14:34 32.95079 -16.57865 4098 ft 272 kts 187°
2026-05-06 14:34 32.93203 -16.58111 3826 ft 271 kts 187°
2026-05-06 14:34 32.91341 -16.58354 3545 ft 267 kts 186°
2026-05-06 14:35 32.89510 -16.58594 3266 ft 261 kts 187°
2026-05-06 14:35 32.87741 -16.58824 3134 ft 251 kts 186°
2026-05-06 14:35 32.86033 -16.59081 3016 ft 246 kts 194°
2026-05-06 14:35 32.84529 -16.60025 2551 ft 250 kts 228°
2026-05-06 14:36 32.83489 -16.61696 2119 ft 255 kts 231°
2026-05-06 14:36 32.82132 -16.63005 2027 ft 248 kts 208°
2026-05-06 14:36 32.80552 -16.63716 1995 ft 239 kts 195°
2026-05-06 14:36 32.78919 -16.64221 2007 ft 240 kts 198°
2026-05-06 14:37 32.77334 -16.64841 2004 ft 241 kts 199°
2026-05-06 14:37 32.75746 -16.65493 1996 ft 241 kts 199°
2026-05-06 14:37 32.74577 -16.65974 2000 ft 240 kts 199°
2026-05-06 14:37 32.73035 -16.66606 2024 ft 231 kts 199°
2026-05-06 14:38 32.71548 -16.67214 1978 ft 221 kts 199°
2026-05-06 14:38 32.70090 -16.67808 1998 ft 223 kts 199°
2026-05-06 14:38 32.68633 -16.68399 1996 ft 220 kts 200°
2026-05-06 14:38 32.67189 -16.68985 1986 ft 215 kts 199°
2026-05-06 14:39 32.65804 -16.69545 1996 ft 204 kts 199°
2026-05-06 14:39 32.64489 -16.70078 1972 ft 196 kts 199°
2026-05-06 14:39 32.63274 -16.70651 1973 ft 179 kts 211°
2026-05-06 14:39 32.62267 -16.71521 2002 ft 179 kts 227°
2026-05-06 14:40 32.61522 -16.72657 1994 ft 172 kts 244°
2026-05-06 14:40 32.61062 -16.73940 2004 ft 166 kts 258°
2026-05-06 14:40 32.60854 -16.75290 2016 ft 165 kts 270°
2026-05-06 14:40 32.60890 -16.76651 2004 ft 160 kts 284°
2026-05-06 14:41 32.61160 -16.77862 1997 ft 150 kts 297°
2026-05-06 14:41 32.61688 -16.78901 1942 ft 144 kts 315°
2026-05-06 14:41 32.62416 -16.79733 1662 ft 145 kts 323°
2026-05-06 14:41 32.63286 -16.80282 1363 ft 140 kts 347°
2026-05-06 14:42 32.64246 -16.80390 1217 ft 142 kts
2026-05-06 14:42 32.65218 -16.80345 1002 ft 144 kts
2026-05-06 14:42 32.66191 -16.80319 869 ft 136 kts
2026-05-06 14:42 32.67117 -16.80158 724 ft 136 kts 16°
2026-05-06 14:43 32.67969 -16.79620 528 ft 143 kts 37°
2026-05-06 14:43 32.68655 -16.78757 307 ft 143 kts 41°
2026-05-06 14:43 32.69345 -16.77955 170 ft 127 kts 39°
2026-05-06 14:43 32.69867 -16.77366 191 ft 74 kts 47°
2026-05-06 14:44 32.69955 -16.77213 187 ft 10 kts 107°
2026-05-06 14:44 32.69896 -16.77177 186 ft 11 kts 179°
2026-05-06 14:44 32.69814 -16.77209 181 ft 13 kts 223°
2026-05-06 14:45 32.69663 -16.77392 168 ft 13 kts 226°
2026-05-06 14:45 32.69607 -16.77462 168 ft 11 kts 226°
2026-05-06 14:45 32.69554 -16.77528 168 ft 11 kts 226°
2026-05-06 14:45 32.69504 -16.77557 168 ft 7 kts 155°
2026-05-06 14:46 32.69473 -16.77525 168 ft 2 kts 137°
2026-05-06 14:46 32.69470 -16.77522 168 ft 0 kts 138°